Estación de San José

Ultimos registro cada 15 minutos 30
Estación Fecha / Hora Temperatura Humedad Lluvia Velocidad Dirección Radiación Presion
30 San José 08-05-2026 07:15 1,1 93 0 0 185 0 1024,5
29 San José 08-05-2026 07:00 1,4 93 0 0 185 0 1024,7
28 San José 08-05-2026 06:45 1,6 94 0,2 0 185 0 1025,1
27 San José 08-05-2026 06:30 1,3 93 0 0 185 0 1025,2
26 San José 08-05-2026 06:15 1,2 93 0 0 185 0 1025,1
25 San José 08-05-2026 06:00 1,3 93 0 0 185 0 1025
24 San José 08-05-2026 05:45 1,6 93 0 0 185 0 1025
23 San José 08-05-2026 05:30 2,1 93 0 0 185 0 1025,1
22 San José 08-05-2026 05:15 1,9 93 0 0 185 0 1025
21 San José 08-05-2026 05:00 2,2 93 0 0 185 0 1025,5
20 San José 08-05-2026 04:45 2,2 93 0 0 185 0 1025,1
19 San José 08-05-2026 04:30 2,1 92 0 0 185 0 1025,1
18 San José 08-05-2026 04:15 2,3 93 0 0 185 0 1025,1
17 San José 08-05-2026 04:00 2,4 92 0 0 185 0 1025,1
16 San José 08-05-2026 03:45 2,7 93 0 0 185 0 1025,3
15 San José 08-05-2026 03:30 2,7 93 0 0 185 0 1025,8
14 San José 08-05-2026 03:15 2,8 92 0 0 185 0 1026
13 San José 08-05-2026 03:00 2,7 93 0 0 185 0 1026,1
12 San José 08-05-2026 02:45 2,4 91 0 0 185 0 1026,2
11 San José 08-05-2026 02:30 2,8 90 0 0 185 0 1026
10 San José 08-05-2026 02:15 3,3 91 0 0 185 0 1026,1
9 San José 08-05-2026 02:00 3,8 91 0 0 185 0 1026,2
8 San José 08-05-2026 01:45 4,2 91 0 0 185 0 1026
7 San José 08-05-2026 01:30 4,7 92 0 0 185 0 1026,2
6 San José 08-05-2026 01:15 4,7 91 0 0 185 0 1026,5
5 San José 08-05-2026 01:00 4,8 90 0 0 185 0 1026,5
4 San José 08-05-2026 00:45 5,2 88 0 0 185 0 1026,7
3 San José 08-05-2026 00:30 6,1 87 0 0 185 0 1026,7
2 San José 08-05-2026 00:15 6,8 88 0 0 185 0 1026,9
1 San José 08-05-2026 00:00 7,4 87 0 0 185 0 1027,3